• în Republica Moldova
  • Lista ţărilor
  • Pe 7 zile
  • Temperatura apei
  • Hartă satelitară
  • Meteo pe hartă
  • Widget-uri
  • user-avatar
    Intrare

    Meteo pe oră la Annaba

    Astăzi, 24 Februarie, Vineri

    Timp Temperatura Precipitaţii Vânt Presiune Umiditate
    00:00 +17°C° 0 mm 4 m/s 758 mmHg 56%
    01:00 +17°C° 0 mm 4 m/s 758 mmHg 54%
    02:00 +17°C° 0 mm 4 m/s 757 mmHg 53%
    03:00 +17°C° 0 mm 4 m/s 757 mmHg 51%
    04:00 +17°C° 0 mm 4 m/s 756 mmHg 50%
    05:00 +15°C° 0,1 mm 5 m/s 755 mmHg 50%
    06:00 +15°C° 0,1 mm 5 m/s 755 mmHg 51%
    07:00 +15°C° 0,1 mm 5 m/s 754 mmHg 51%
    08:00 +17°C° 0,1 mm 5 m/s 754 mmHg 50%
    09:00 +21°C° 0,1 mm 5 m/s 755 mmHg 50%
    10:00 +23°C° 0,1 mm 5 m/s 755 mmHg 49%
    11:00 +24°C° 0 mm 6 m/s 754 mmHg 50%
    12:00 +26°C° 0 mm 7 m/s 754 mmHg 50%
    13:00 +26°C° 0 mm 8 m/s 754 mmHg 50%
    14:00 +24°C° 0 mm 8 m/s 754 mmHg 57%
    15:00 +22°C° 0 mm 8 m/s 754 mmHg 64%
    16:00 +21°C° 0 mm 8 m/s 754 mmHg 70%
    17:00 +18°C° 0 mm 8 m/s 755 mmHg 78%
    18:00 +17°C° 0 mm 7 m/s 755 mmHg 86%
    19:00 +15°C° 0 mm 6 m/s 756 mmHg 94%
    20:00 +15°C° 0,1 mm 6 m/s 757 mmHg 92%
    21:00 +15°C° 0,1 mm 5 m/s 758 mmHg 91%
    22:00 +14°C° 0,1 mm 5 m/s 758 mmHg 89%
    23:00 +14°C° 0,1 mm 5 m/s 759 mmHg 90%

    Mâine, 25 Februarie, Sâmbătă

    Timp Temperatura Precipitaţii Vânt Presiune Umiditate
    00:00 +14°C° 0,1 mm 5 m/s 759 mmHg 91%
    01:00 +14°C° 0,1 mm 5 m/s 759 mmHg 92%
    02:00 +13°C° 0,1 mm 5 m/s 759 mmHg 92%
    03:00 +13°C° 0,1 mm 5 m/s 759 mmHg 92%
    04:00 +13°C° 0,1 mm 5 m/s 759 mmHg 92%
    05:00 +12°C° 0,1 mm 5 m/s 760 mmHg 92%
    06:00 +12°C° 0,1 mm 5 m/s 760 mmHg 92%
    07:00 +12°C° 0,1 mm 5 m/s 760 mmHg 92%
    08:00 +12°C° 0,1 mm 5 m/s 761 mmHg 89%
    09:00 +11°C° 0,1 mm 6 m/s 761 mmHg 87%
    10:00 +11°C° 0,1 mm 6 m/s 762 mmHg 84%
    11:00 +11°C° 0,1 mm 6 m/s 762 mmHg 84%
    12:00 +11°C° 0,1 mm 6 m/s 762 mmHg 84%
    13:00 +11°C° 0,1 mm 7 m/s 762 mmHg 83%
    14:00 +12°C° 0,1 mm 7 m/s 762 mmHg 80%
    15:00 +12°C° 0,1 mm 8 m/s 762 mmHg 78%
    16:00 +12°C° 0,1 mm 8 m/s 762 mmHg 75%
    17:00 +11°C° 0 mm 8 m/s 762 mmHg 79%
    18:00 +10°C° 0 mm 7 m/s 762 mmHg 83%
    19:00 +9°C° 0 mm 7 m/s 763 mmHg 87%
    20:00 +9°C° 0,1 mm 6 m/s 763 mmHg 87%
    21:00 +9°C° 0,1 mm 6 m/s 764 mmHg 87%
    22:00 +9°C° 0,1 mm 6 m/s 764 mmHg 87%
    23:00 +9°C° 0,1 mm 6 m/s 764 mmHg 87%

    Poimâine, 26 Februarie, Duminică

    Timp Temperatura Precipitaţii Vânt Presiune Umiditate
    00:00 +9°C° 0,1 mm 6 m/s 764 mmHg 87%
    01:00 +9°C° 0,1 mm 5 m/s 764 mmHg 87%
    02:00 +8°C° 0,1 mm 5 m/s 764 mmHg 87%
    03:00 +8°C° 0,1 mm 5 m/s 764 mmHg 88%
    04:00 +7°C° 0,1 mm 5 m/s 764 mmHg 88%
    05:00 +7°C° 0,1 mm 5 m/s 764 mmHg 88%
    06:00 +7°C° 0,1 mm 4 m/s 764 mmHg 88%
    07:00 +7°C° 0,1 mm 4 m/s 764 mmHg 88%
    08:00 +8°C° 0,1 mm 4 m/s 764 mmHg 84%
    09:00 +11°C° 0,1 mm 4 m/s 764 mmHg 80%
    10:00 +12°C° 0,1 mm 4 m/s 765 mmHg 76%
    11:00 +13°C° 0,1 mm 4 m/s 764 mmHg 74%
    12:00 +13°C° 0,1 mm 4 m/s 764 mmHg 72%
    13:00 +14°C° 0,1 mm 4 m/s 764 mmHg 70%
    14:00 +14°C° 0 mm 4 m/s 763 mmHg 70%
    15:00 +14°C° 0 mm 4 m/s 763 mmHg 70%
    16:00 +14°C° 0 mm 4 m/s 763 mmHg 70%
    17:00 +12°C° 0 mm 4 m/s 763 mmHg 76%
    18:00 +10°C° 0 mm 3 m/s 763 mmHg 82%
    19:00 +8°C° 0 mm 3 m/s 764 mmHg 89%
    20:00 +8°C° 0 mm 3 m/s 764 mmHg 88%
    21:00 +8°C° 0 mm 2 m/s 764 mmHg 88%
    22:00 +7°C° 0 mm 2 m/s 764 mmHg 88%
    23:00 +7°C° 0 mm 2 m/s 764 mmHg 88%

    27 Februarie, Luni

    Timp Temperatura Precipitaţii Vânt Presiune Umiditate
    00:00 +7°C° 0 mm 2 m/s 764 mmHg 88%
    01:00 +7°C° 0 mm 2 m/s 764 mmHg 89%
    02:00 +6°C° 0 mm 2 m/s 764 mmHg 88%
    03:00 +5°C° 0 mm 3 m/s 763 mmHg 87%
    04:00 +5°C° 0 mm 3 m/s 763 mmHg 86%
    05:00 +6°C° 0 mm 2 m/s 763 mmHg 85%
    06:00 +5°C° 0 mm 2 m/s 763 mmHg 83%
    07:00 +5°C° 0 mm 2 m/s 763 mmHg 82%
    08:00 +8°C° 0 mm 2 m/s 763 mmHg 72%
    09:00 +12°C° 0 mm 2 m/s 763 mmHg 63%
    10:00 +15°C° 0 mm 1 m/s 763 mmHg 53%
    11:00 +16°C° 0 mm 1 m/s 763 mmHg 48%
    12:00 +18°C° 0 mm 1 m/s 763 mmHg 44%
    13:00 +20°C° 0 mm 1 m/s 762 mmHg 39%
    14:00 +20°C° 0 mm 1 m/s 762 mmHg 42%
    15:00 +20°C° 0 mm 1 m/s 761 mmHg 45%
    16:00 +19°C° 0 mm 2 m/s 761 mmHg 48%
    17:00 +16°C° 0 mm 2 m/s 761 mmHg 59%
    18:00 +12°C° 0 mm 1 m/s 761 mmHg 70%
    19:00 +9°C° 0 mm 1 m/s 761 mmHg 81%
    20:00 +9°C° 0 mm 1 m/s 762 mmHg 80%
    21:00 +9°C° 0 mm 1 m/s 762 mmHg 80%
    22:00 +9°C° 0 mm 1 m/s 762 mmHg 79%
    23:00 +9°C° 0 mm 1 m/s 762 mmHg 78%

    28 Februarie, Marţi

    Timp Temperatura Precipitaţii Vânt Presiune Umiditate
    00:00 +8°C° 0 mm 2 m/s 762 mmHg 77%
    01:00 +9°C° 0 mm 2 m/s 762 mmHg 76%
    02:00 +9°C° 0 mm 2 m/s 761 mmHg 75%
    03:00 +9°C° 0 mm 2 m/s 761 mmHg 74%
    04:00 +9°C° 0 mm 3 m/s 761 mmHg 74%
    05:00 +9°C° 0 mm 2 m/s 761 mmHg 74%
    06:00 +9°C° 0 mm 2 m/s 761 mmHg 73%
    07:00 +9°C° 0 mm 2 m/s 761 mmHg 73%
    08:00 +13°C° 0 mm 2 m/s 761 mmHg 66%
    09:00 +16°C° 0 mm 2 m/s 762 mmHg 58%
    10:00 +19°C° 0 mm 2 m/s 762 mmHg 50%
    11:00 +20°C° 0 mm 2 m/s 762 mmHg 48%
    12:00 +21°C° 0 mm 2 m/s 761 mmHg 47%
    13:00 +23°C° 0 mm 2 m/s 761 mmHg 45%
    14:00 +23°C° 0 mm 2 m/s 761 mmHg 49%
    15:00 +21°C° 0 mm 3 m/s 761 mmHg 52%
    16:00 +21°C° 0 mm 3 m/s 760 mmHg 56%
    17:00 +18°C° 0 mm 3 m/s 761 mmHg 66%
    18:00 +15°C° 0 mm 2 m/s 761 mmHg 76%
    19:00 +12°C° 0 mm 2 m/s 761 mmHg 86%
    20:00 +10°C° 0 mm 2 m/s 762 mmHg 87%
    21:00 +10°C° 0 mm 2 m/s 762 mmHg 87%
    22:00 +9°C° 0 mm 2 m/s 763 mmHg 87%
    23:00 +9°C° 0 mm 2 m/s 763 mmHg 87%

    1 Martie, Miercuri

    Timp Temperatura Precipitaţii Vânt Presiune Umiditate
    00:00 +9°C° 0 mm 2 m/s 763 mmHg 86%
    01:00 +9°C° 0 mm 2 m/s 763 mmHg 85%
    02:00 +9°C° 0 mm 2 m/s 763 mmHg 85%
    03:00 +8°C° 0 mm 2 m/s 762 mmHg 85%
    04:00 +8°C° 0 mm 2 m/s 762 mmHg 85%
    05:00 +8°C° 0 mm 2 m/s 763 mmHg 85%
    06:00 +8°C° 0 mm 2 m/s 763 mmHg 85%
    07:00 +9°C° 0 mm 1 m/s 763 mmHg 85%
    08:00 +12°C° 0 mm 1 m/s 763 mmHg 77%
    09:00 +16°C° 0 mm 1 m/s 764 mmHg 69%
    10:00 +20°C° 0 mm 1 m/s 764 mmHg 61%
    11:00 +21°C° 0 mm 1 m/s 764 mmHg 59%
    12:00 +22°C° 0 mm 1 m/s 764 mmHg 56%
    13:00 +22°C° 0 mm 1 m/s 763 mmHg 54%
    14:00 +21°C° 0 mm 2 m/s 763 mmHg 56%
    15:00 +21°C° 0 mm 2 m/s 763 mmHg 59%
    16:00 +21°C° 0 mm 2 m/s 763 mmHg 61%
    17:00 +18°C° 0 mm 2 m/s 763 mmHg 70%
    18:00 +15°C° 0 mm 2 m/s 763 mmHg 80%
    19:00 +13°C° 0 mm 1 m/s 763 mmHg 89%
    20:00 +12°C° 0 mm 1 m/s 763 mmHg 89%
    21:00 +12°C° 0 mm 1 m/s 763 mmHg 89%
    22:00 +11°C° 0 mm 1 m/s 764 mmHg 88%
    23:00 +11°C° 0 mm 1 m/s 763 mmHg 88%
    Arată mai mult